This demonstration page uses our WeatherBlox Daily Observations layout. Learn more.

Left ArrowRight Arrow

Hourly Observations for January 2, 2019

Temp ( °F °C ) Dew Point ( °F °C ) Humidity (%) Winds ( mph kmh ) Pressure ( in mb ) Visibility ( mi km ) Precip ( " mm )
12:53 am 00:53 Clear 55 12.8 54 12.2 96 96 Calm 30.16 1021 10 16 0.00 0.00
1:53 am 01:53 Clear 53 11.7 53 11.7 100 100 Calm 30.16 1022 10 16 0.00 0.00
2:53 am 02:53 Clear 53 11.7 53 11.7 100 100 Calm 30.17 1022 10 16 0.00 0.00
3:53 am 03:53 Clear 51 10.6 51 10.6 100 100 N 3 6 30.16 1021 9 14 0.00 0.00
4:53 am 04:53 Clear 53 11.7 53 11.7 100 100 Calm 30.14 1021 10 16 0.00 0.00
5:53 am 05:53 Clear with Mist and Fog 50 10 50 10 100 100 Calm 30.16 1021 7 11 0.00 0.00
6:23 am 06:23 Mostly Clear with Mist and Fog 50 10 50 10 100 100 Calm 30.21 1023 3 4 0.00 0.00
6:37 am 06:37 Mostly Clear with Mist and Fog 48 8.9 48 8.9 100 100 NNW 5 7 30.21 1023 5 8 0.00 0.00
6:53 am 06:53 Partly Cloudy with Mist and Fog 49 9.4 49 9.4 100 100 WNW 3 6 30.16 1021 3 5 0.00 0.00
6:57 am 06:57 Mostly Cloudy with Mist and Fog 49 9.4 49 9.4 100 100 NW 5 7 30.21 1023 2 3 0.00 0.00
7:08 am 07:08 Mostly Cloudy with Mist and Fog 49 9.4 49 9.4 100 100 Calm 30.21 1023 2 3 0.00 0.00
7:20 am 07:20 Mostly Cloudy with Fog 49 9.4 49 9.4 100 100 Calm 30.21 1023 1 1 0.00 0.00
7:53 am 07:53 Mostly Cloudy with Fog 50 10 50 10 100 100 Calm 30.17 1022 0 0 0.00 0.00
8:30 am 08:30 Mostly Cloudy with Fog 50 10 50 10 100 100 Calm 30.21 1023 1 1 0.00 0.00
8:47 am 08:47 Cloudy with Mist and Fog 50 10 50 10 100 100 NNW 3 6 30.21 1023 1 2 0.00 0.00
8:53 am 08:53 Cloudy with Mist and Fog 50 10 50 10 100 100 Calm 30.21 1023 3 5 0.00 0.00
9:01 am 09:01 Cloudy with Mist and Fog 50 10 50 10 100 100 NE 3 6 30.21 1023 2 3 0.00 0.00
9:23 am 09:23 Cloudy with Mist and Fog 51 10.6 51 10.6 100 100 Calm 30.21 1023 2 3 0.00 0.00
9:53 am 09:53 Cloudy with Mist and Fog 52 11.1 52 11.1 100 100 Calm 30.22 1023 2 3 0.00 0.00
10:00 am 10:00 Cloudy with Mist and Fog 52 11.1 52 11.1 100 100 Calm 30.24 1024 5 8 0.00 0.00
10:53 am 10:53 Cloudy 54 12.2 53 11.7 97 97 Calm 30.23 1024 10 16 0.00 0.00
11:53 am 11:53 Cloudy 56 13.3 53 11.7 90 90 E 3 6 30.19 1022 10 16 0.00 0.00
12:53 pm 12:53 Cloudy 57 13.9 53 11.7 87 87 Calm 30.16 1021 10 16 0.00 0.00
1:53 pm 13:53 Cloudy with Rain 56 13.3 54 12.2 93 93 S 3 6 30.14 1021 3 5 0.03 0.76
2:53 pm 14:53 Cloudy with Light Rain 54 12.2 54 12.2 100 100 N 3 6 30.13 1020 4 6 0.12 3.05
3:53 pm 15:53 Cloudy 51 10.6 49 9.4 92 92 ENE 3 6 30.12 1020 10 16 0.05 1.27
4:53 pm 16:53 Cloudy 51 10.6 49 9.4 92 92 ESE 7 11 30.11 1020 10 16 0.02 0.51
5:53 pm 17:53 Cloudy with Light Rain 50 10 49 9.4 96 96 NE 5 7 30.12 1020 10 16 0.00 0.00
6:53 pm 18:53 Cloudy with Light Rain 49 9.4 49 9.4 100 100 NE 6 9 30.12 1020 10 16 0.03 0.76
7:12 pm 19:12 Cloudy with Light Rain 49 9.4 49 9.4 100 100 NE 6 9 30.15 1021 5 8 0.01 0.25
7:40 pm 19:40 Cloudy with Light Rain 49 9.4 49 9.4 100 100 N 3 6 30.15 1021 4 6 0.05 1.27
7:53 pm 19:53 Cloudy with Light Rain 49 9.4 49 9.4 100 100 NE 3 6 30.12 1020 3 5 0.07 1.78
8:53 pm 20:53 Cloudy with Light Rain 50 10 50 10 100 100 NE 5 7 30.10 1019 7 11 0.01 0.25
9:53 pm 21:53 Cloudy with Light Rain 50 10 50 10 100 100 ENE 6 9 30.06 1018 5 8 0.02 0.51
10:53 pm 22:53 Cloudy with Light Rain 50 10 50 10 100 100 Calm 30.06 1018 3 5 0.04 1.02
10:59 pm 22:59 Cloudy with Rain 50 10 50 10 100 100 NNW 3 6 30.09 1019 3 4 0.01 0.25
11:20 pm 23:20 Cloudy with Light Rain 50 10 50 10 100 100 Calm 30.06 1018 3 5 0.02 0.51
11:40 pm 23:40 Cloudy with Light Rain 51 10.6 51 10.6 100 100 Calm 30.06 1018 3 5 0.03 0.76
11:48 pm 23:48 Cloudy with Light Rain 50 10 50 10 100 100 Calm 30.06 1018 3 4 0.04 1.02
11:53 pm 23:53 Cloudy with Rain 51 10.6 51 10.6 100 100 Calm 30.02 1017 2 3 0.06 1.52

Powered by AerisWeather